This is the latest recevied weather packets stored in our database for station/object W4ZHA. If no packets are shown the sender has not sent any weather packets the latest 10 day(s).
| Time | Temp. | Humidity | Pressure | Rain* | Wind** | Luminosity | Snow |
|---|---|---|---|---|---|---|---|
| 1777988401 | 17.22° C | 64% | 1015.5 hPa | 0 mm | - | 102 W/m² | - |
| 1777988099 | 17.78° C | 64% | 1015.5 hPa | 0 mm | - | 98 W/m² | - |
| 1777987794 | 17.22° C | 64% | 1015.5 hPa | 0 mm | - | 104 W/m² | - |
| 1777987491 | 17.78° C | 65% | 1015.5 hPa | 0 mm | - | 107 W/m² | - |
| 1777987189 | 17.22° C | 65% | 1015.5 hPa | 0 mm | - | 114 W/m² | - |
| 1777986885 | 17.22° C | 65% | 1015.5 hPa | 0 mm | - | 170 W/m² | - |
| 1777986583 | 16.67° C | 68% | 1015.8 hPa | 0 mm | - | 109 W/m² | - |
| 1777986281 | 16.67° C | 68% | 1015.8 hPa | 0 mm | - | 66 W/m² | - |
| 1777985979 | 16.11° C | 69% | 1015.5 hPa | 0 mm | - | 58 W/m² | - |
| 1777985676 | 16.11° C | 68% | 1015.5 hPa | 0 mm | - | 65 W/m² | - |
| 1777985372 | 15.56° C | 70% | 1015.5 hPa | 0 mm | - | 71 W/m² | - |
| 1777985069 | 15.56° C | 71% | 1015.5 hPa | 0 mm | - | 57 W/m² | - |
| 1777984765 | 15.56° C | 71% | 1015.5 hPa | 0 mm | - | 55 W/m² | - |
| 1777984462 | 15° C | 71% | 1015.1 hPa | 0 mm | - | 58 W/m² | - |
| 1777984158 | 15° C | 72% | 1015.1 hPa | 0 mm | - | 56 W/m² | - |
| 1777983855 | 14.44° C | 72% | 1015.1 hPa | 0 mm | - | 54 W/m² | - |
| 1777983552 | 13.89° C | 74% | 1014.8 hPa | 0 mm | - | 57 W/m² | - |
| 1777983249 | 13.89° C | 75% | 1014.8 hPa | 0 mm | - | 58 W/m² | - |
| 1777982945 | 13.89° C | 75% | 1014.8 hPa | 0 mm | - | 58 W/m² | - |
| 1777982642 | 13.33° C | 76% | 1014.8 hPa | 0 mm | - | 54 W/m² | - |
| 1777982340 | 12.78° C | 75% | 1014.8 hPa | 0 mm | - | 47 W/m² | - |
| 1777982037 | 12.22° C | 76% | 1014.8 hPa | 0 mm | - | 43 W/m² | - |
| 1777981735 | 11.67° C | 77% | 1014.8 hPa | 0 mm | - | 39 W/m² | - |
| 1777981431 | 11.67° C | 78% | 1014.4 hPa | 0 mm | - | 35 W/m² | - |
| 1777981128 | 11.11° C | 79% | 1014.4 hPa | 0 mm | - | 29 W/m² | - |
* Rain latest hour (hover to see other rain measurements)
** Current wind speed in m/s (hover to see current wind gust speed)